This is the latest recevied weather packets stored in our database for station/object KF0WJA. If no packets are shown the sender has not sent any weather packets the latest 10 day(s).
| Time | Temp. | Humidity | Pressure | Rain* | Wind** | Luminosity | Snow |
|---|---|---|---|---|---|---|---|
| 1788316103 | 28.89° C | 50% | 1016.5 hPa | 0 mm | - | 0 W/m² | - |
| 1788315798 | 28.89° C | 50% | 1016.5 hPa | 0 mm | - | 0 W/m² | - |
| 1788315494 | 28.89° C | 50% | 1016.5 hPa | 0 mm | - | 0 W/m² | - |
| 1788315189 | 28.89° C | 51% | 1016.5 hPa | 0 mm | - | 0 W/m² | - |
| 1788314885 | 28.89° C | 50% | 1016.5 hPa | 0 mm | - | 0 W/m² | - |
| 1788314581 | 28.89° C | 50% | 1016.1 hPa | 0 mm | - | 0 W/m² | - |
| 1788314275 | 29.44° C | 49% | 1016.1 hPa | 0 mm | - | 0 W/m² | - |
| 1788313972 | 30° C | 48% | 1016 hPa | 0 mm | - | 0 W/m² | - |
| 1788313667 | 30° C | 47% | 1016 hPa | 0 mm | - | 0 W/m² | - |
| 1788313364 | 30° C | 46% | 1016 hPa | 0 mm | - | 0 W/m² | - |
| 1788313062 | 30° C | 45% | 1015.9 hPa | 0 mm | - | 0 W/m² | - |
| 1788312758 | 30° C | 45% | 1016.1 hPa | 0 mm | - | 0 W/m² | - |
| 1788312453 | 30.56° C | 44% | 1016 hPa | 0 mm | - | 0 W/m² | - |
| 1788312149 | 30.56° C | 43% | 1015.9 hPa | 0 mm | - | 0 W/m² | - |
| 1788311844 | 30.56° C | 43% | 1016 hPa | 0 mm | - | 0 W/m² | - |
| 1788311544 | 30.56° C | 43% | 1015.9 hPa | 0 mm | - | 0 W/m² | - |
| 1788311244 | 31.11° C | 43% | 1016.1 hPa | 0 mm | - | 0 W/m² | - |
| 1788310940 | 31.67° C | 41% | 1016 hPa | 0 mm | - | 0 W/m² | - |
| 1788310637 | 31.67° C | 40% | 1015.8 hPa | 0 mm | - | 1 W/m² | - |
| 1788310334 | 32.22° C | 39% | 1015.9 hPa | 0 mm | - | 3 W/m² | - |
| 1788310033 | 32.78° C | 39% | 1015.9 hPa | 0 mm | - | 8 W/m² | - |
| 1788309728 | 32.78° C | 38% | 1016 hPa | 0 mm | - | 13 W/m² | - |
| 1788309423 | 33.33° C | 38% | 1016 hPa | 0 mm | - | 16 W/m² | - |
| 1788309119 | 33.33° C | 37% | 1015.9 hPa | 0 mm | - | 23 W/m² | - |
| 1788308814 | 33.89° C | 36% | 1016 hPa | 0 mm | - | 29 W/m² | - |
* Rain latest hour (hover to see other rain measurements)
** Current wind speed in m/s (hover to see current wind gust speed)